Total_Precipitation_Accumulation
0.04 0.03 0.03 0.02 0.03 0.02 0.02 0.02 0.02 0.01 0.02 0.02 0.02 0.03 0.03 0.03 0.03 0.03 0.02 0.02 0.02 0.03 0.02 0.01 0.02 0.02 0.01 0.02 0.01 0.00 0.00 0.00 0.00 0.00 0.00 0.00 0.00 0.00 0.00 0.00 0.00 0.00 0.00 0.00 0.00 0.00 0.01 0.01 0.01 0.00 0.01 0.01 0.01 0.02 0.11 0.32 0.23 0.71 1.75 1.17 2.12 2.07 1.71 1.19 0.87 1.32 0.61 0.96 0.53 0.81 1.05 0.73 0.40 0.34 0.76 0.58 0.70 0.62 0.53 0.45 0.08 0.05 0.07 0.02 0.01 0.01 0.00 0.02
0.03 0.03 0.03 0.03 0.03 0.02 0.02 0.02 0.01 0.02 0.01 0.02 0.03 0.02 0.02 0.02 0.03 0.03 0.02 0.03 0.03 0.03 0.02 0.02 0.02 0.01 0.02 0.01 0.00 0.00 0.01 0.00 0.00 0.00 0.00 0.00 0.00 0.00 0.00 0.00 0.00 0.00 0.00 0.01 0.00 0.00 0.00 0.00 0.00 0.00 0.00 0.05 0.03 0.11 0.06 0.63 0.25 1.30 1.07 1.66 2.27 1.19 1.22 1.13 0.62 0.21 0.87 0.82 0.48 0.73 1.14 0.97 0.39 0.51 0.54 1.35 0.63 0.65 0.58 0.15 0.13 0.07 0.03 0.01 0.01 0.00 0.01 0.02
0.02 0.02 0.02 0.03 0.02 0.02 0.01 0.01 0.02 0.01 0.02 0.02 0.02 0.02 0.02 0.02 0.02 0.03 0.03 0.03 0.03 0.02 0.02 0.02 0.02 0.02 0.02 0.01 0.00 0.00 0.01 0.00 0.00 0.00 0.00 0.00 0.00 0.00 0.00 0.00 0.00 0.00 0.00 0.00 0.00 0.00 0.00 0.00 0.00 0.00 0.01 0.12 0.06 0.27 0.04 1.09 0.68 0.90 1.10 1.55 1.75 0.55 1.35 0.49 0.31 0.64 0.64 0.36 0.60 0.62 0.50 0.85 0.40 0.42 0.11 0.99 0.57 0.53 0.52 0.09 0.08 0.05 0.06 0.03 0.02 0.01 0.02 0.03
0.02 0.02 0.02 0.02 0.01 0.01 0.01 0.02 0.02 0.02 0.02 0.02 0.02 0.01 0.02 0.02 0.02 0.03 0.04 0.03 0.02 0.02 0.02 0.03 0.03 0.02 0.02 0.00 0.00 0.01 0.00 0.00 0.00 0.00 0.00 0.00 0.00 0.00 0.00 0.00 0.00 0.00 0.00 0.00 0.00 0.00 0.00 0.00 0.00 0.00 0.00 0.05 0.10 0.05 0.43 0.75 0.66 0.60 0.73 1.28 1.29 0.97 0.77 0.68 0.52 0.65 0.35 0.62 0.30 0.67 0.28 0.41 0.30 0.37 0.52 0.42 0.32 0.40 0.52 0.05 0.02 0.01 0.01 0.02 0.01 0.01 0.02 0.03
0.02 0.02 0.03 0.02 0.01 0.01 0.01 0.02 0.02 0.02 0.02 0.02 0.01 0.02 0.02 0.02 0.03 0.03 0.03 0.02 0.02 0.01 0.02 0.03 0.02 0.02 0.00 0.00 0.00 0.00 0.00 0.00 0.00 0.00 0.00 0.00 0.00 0.00 0.00 0.00 0.00 0.00 0.00 0.00 0.00 0.00 0.00 0.00 0.00 0.01 0.03 0.31 0.03 0.06 0.17 0.08 0.26 0.19 0.69 0.41 0.35 0.53 0.95 0.49 0.46 0.40 0.17 0.54 0.62 0.64 0.22 0.70 0.28 0.94 0.74 0.37 0.75 0.87 0.34 0.10 0.00 0.01 0.00 0.01 0.00 0.01 0.00 0.01
0.02 0.03 0.02 0.02 0.02 0.01 0.02 0.02 0.02 0.01 0.01 0.01 0.01 0.01 0.02 0.02 0.02 0.02 0.02 0.01 0.02 0.02 0.02 0.02 0.02 0.00 0.00 0.00 0.00 0.01 0.00 0.00 0.00 0.00 0.00 0.00 0.00 0.00 0.00 0.00 0.00 0.00 0.00 0.00 0.00 0.00 0.00 0.00 0.00 0.00 0.02 0.07 0.35 0.46 0.04 0.61 0.28 0.90 0.33 0.31 0.10 0.24 0.77 0.35 0.34 0.24 0.61 0.83 0.54 0.22 0.26 0.32 0.50 0.41 0.34 0.72 1.14 0.50 0.25 0.16 0.01 0.01 0.00 0.01 0.00 0.00 0.02 0.01
0.02 0.02 0.02 0.02 0.02 0.02 0.02 0.01 0.01 0.01 0.01 0.01 0.01 0.01 0.01 0.01 0.01 0.01 0.01 0.01 0.02 0.02 0.02 0.01 0.01 0.01 0.00 0.00 0.00 0.00 0.00 0.00 0.00 0.00 0.00 0.00 0.00 0.00 0.00 0.00 0.00 0.00 0.00 0.00 0.00 0.00 0.00 0.00 0.00 0.00 0.00 0.03 0.05 0.12 0.07 0.40 0.03 0.19 0.70 0.14 0.34 0.38 0.38 0.26 0.56 0.18 0.66 0.85 0.71 0.97 0.09 0.68 0.47 0.36 0.68 0.72 0.46 0.27 0.33 0.02 0.00 0.00 0.00 0.00 0.00 0.00 0.01 0.00
0.02 0.01 0.01 0.01 0.01 0.02 0.01 0.01 0.01 0.01 0.01 0.01 0.01 0.02 0.01 0.01 0.01 0.01 0.01 0.02 0.02 0.01 0.02 0.02 0.02 0.00 0.00 0.00 0.00 0.00 0.00 0.00 0.00 0.00 0.00 0.00 0.00 0.00 0.00 0.00 0.00 0.00 0.00 0.00 0.00 0.00 0.00 0.00 0.00 0.00 0.03 0.59 0.14 0.40 0.06 0.03 0.11 0.36 0.42 0.10 0.14 0.43 0.34 0.30 0.29 0.43 0.17 0.68 0.83 0.93 0.52 0.67 0.42 0.71 0.41 0.85 0.43 0.07 0.07 0.01 0.00 0.00 0.00 0.00 0.00 0.00 0.00 0.01
0.02 0.02 0.01 0.01 0.01 0.01 0.01 0.01 0.01 0.01 0.01 0.01 0.01 0.02 0.02 0.01 0.01 0.01 0.01 0.01 0.01 0.02 0.02 0.03 0.00 0.00 0.01 0.00 0.00 0.00 0.00 0.00 0.00 0.00 0.00 0.00 0.00 0.00 0.00 0.00 0.00 0.00 0.00 0.00 0.00 0.00 0.00 0.00 0.00 0.02 0.47 0.05 0.00 0.00 0.00 0.00 0.45 0.10 0.22 0.15 0.26 0.10 0.24 0.43 0.44 0.25 0.30 0.59 0.76 0.87 0.72 0.45 0.69 0.27 0.93 0.53 0.33 0.05 0.04 0.00 0.00 0.00 0.00 0.00 0.01 0.00 0.00 0.00
0.02 0.01 0.01 0.01 0.02 0.01 0.01 0.01 0.01 0.01 0.01 0.01 0.01 0.01 0.02 0.01 0.01 0.01 0.01 0.01 0.01 0.02 0.02 0.01 0.00 0.00 0.00 0.00 0.00 0.00 0.00 0.00 0.00 0.00 0.00 0.00 0.00 0.00 0.00 0.00 0.00 0.00 0.00 0.00 0.00 0.00 0.00 0.00 0.06 0.02 0.00 0.01 0.00 0.00 0.00 0.01 0.10 0.03 0.14 0.11 0.14 0.09 0.22 0.55 1.03 0.11 1.13 1.39 1.49 1.73 0.90 1.17 0.67 0.46 0.83 0.20 0.32 0.14 0.02 0.00 0.00 0.00 0.00 0.00 0.01 0.00 0.00 0.00
0.01 0.01 0.01 0.01 0.01 0.01 0.01 0.01 0.01 0.01 0.01 0.01 0.01 0.01 0.01 0.01 0.01 0.01 0.01 0.01 0.01 0.01 0.02 0.00 0.00 0.01 0.00 0.00 0.00 0.00 0.00 0.00 0.00 0.00 0.00 0.00 0.00 0.00 0.00 0.00 0.00 0.00 0.00 0.00 0.00 0.00 0.00 0.00 0.00 0.00 0.00 0.01 0.00 0.00 0.00 0.00 0.00 0.01 0.08 0.04 0.07 0.10 0.23 0.80 1.55 1.42 0.72 1.16 1.33 1.95 1.13 0.85 0.57 0.63 0.51 0.18 0.10 0.03 0.03 0.00 0.00 0.00 0.00 0.00 0.00 0.00 0.00 0.00
0.01 0.01 0.01 0.01 0.01 0.01 0.01 0.01 0.01 0.01 0.01 0.00 0.01 0.01 0.01 0.01 0.01 0.01 0.01 0.01 0.01 0.01 0.01 0.00 0.00 0.00 0.00 0.00 0.00 0.00 0.00 0.00 0.00 0.00 0.00 0.00 0.00 0.00 0.00 0.00 0.00 0.00 0.00 0.00 0.00 0.00 0.00 0.00 0.00 0.00 0.02 0.00 0.00 0.00 0.00 0.00 0.00 0.02 0.02 0.19 0.09 0.09 0.58 1.46 1.71 1.28 0.94 0.84 1.54 1.43 1.47 0.94 0.56 1.11 0.37 0.10 0.07 0.16 0.03 0.01 0.00 0.00 0.00 0.00 0.00 0.00 0.01 0.00
0.00 0.01 0.01 0.00 0.00 0.01 0.01 0.01 0.01 0.01 0.01 0.01 0.01 0.01 0.01 0.01 0.01 0.01 0.01 0.00 0.00 0.00 0.01 0.00 0.00 0.00 0.00 0.00 0.00 0.00 0.00 0.00 0.00 0.00 0.00 0.00 0.00 0.00 0.00 0.00 0.00 0.00 0.00 0.00 0.00 0.00 0.00 0.00 0.00 0.00 0.00 0.00 0.00 0.00 0.00 0.00 0.00 0.01 0.06 1.03 0.13 0.56 0.69 1.22 1.53 1.43 1.60 1.28 1.59 1.75 1.69 1.06 1.01 0.65 0.26 0.11 0.16 0.07 0.02 0.01 0.00 0.01 0.00 0.00 0.00 0.00 0.01 0.01
0.01 0.01 0.01 0.01 0.00 0.01 0.01 0.01 0.01 0.01 0.01 0.01 0.01 0.01 0.01 0.01 0.01 0.00 0.00 0.00 0.00 0.01 0.01 0.00 0.00 0.00 0.00 0.00 0.00 0.00 0.00 0.00 0.00 0.00 0.00 0.00 0.00 0.00 0.00 0.00 0.00 0.00 0.00 0.00 0.00 0.00 0.00 0.00 0.00 0.01 0.00 0.00 0.00 0.00 0.00 0.01 0.00 0.28 0.34 0.51 0.77 0.66 1.12 0.98 0.57 1.09 0.83 0.61 0.92 0.74 1.61 1.62 1.06 1.20 0.38 0.28 0.12 0.11 0.04 0.04 0.01 0.01 0.01 0.00 0.00 0.00 0.00 0.00
0.01 0.01 0.01 0.01 0.01 0.01 0.01 0.01 0.01 0.00 0.01 0.01 0.01 0.01 0.01 0.00 0.00 0.00 0.00 0.00 0.01 0.00 0.01 0.01 0.00 0.00 0.00 0.00 0.00 0.00 0.00 0.00 0.00 0.00 0.00 0.00 0.00 0.00 0.00 0.00 0.00 0.00 0.00 0.00 0.00 0.00 0.00 0.00 0.00 0.01 0.00 0.00 0.00 0.00 0.00 0.00 0.02 0.11 0.33 0.71 0.46 0.31 0.69 0.79 0.89 0.79 1.16 0.47 0.58 1.32 1.70 1.14 0.91 0.80 0.63 0.55 0.17 0.26 0.11 0.03 0.05 0.01 0.01 0.00 0.00 0.01 0.01 0.00
0.00 0.01 0.00 0.01 0.01 0.01 0.00 0.00 0.00 0.00 0.01 0.01 0.00 0.01 0.00 0.00 0.00 0.00 0.00 0.00 0.00 0.00 0.01 0.00 0.00 0.00 0.00 0.00 0.00 0.00 0.00 0.00 0.00 0.00 0.00 0.00 0.00 0.00 0.00 0.00 0.00 0.00 0.00 0.00 0.00 0.00 0.00 0.00 0.00 0.00 0.00 0.00 0.00 0.00 0.00 0.00 0.01 0.03 0.22 0.97 0.48 0.17 0.95 0.37 0.75 0.83 0.37 0.38 0.82 1.28 1.89 1.04 0.84 0.51 0.28 0.23 0.14 0.10 0.12 0.03 0.03 0.08 0.01 0.00 0.00 0.00 0.01 0.02
0.00 0.00 0.00 0.01 0.01 0.01 0.00 0.00 0.00 0.00 0.00 0.01 0.00 0.00 0.00 0.00 0.00 0.00 0.00 0.00 0.01 0.00 0.00 0.00 0.00 0.00 0.00 0.00 0.00 0.00 0.00 0.00 0.00 0.00 0.00 0.00 0.00 0.00 0.00 0.00 0.00 0.00 0.00 0.00 0.00 0.00 0.00 0.00 0.00 0.00 0.00 0.00 0.00 0.00 0.00 0.02 0.17 0.18 0.07 0.38 0.31 0.64 0.29 0.29 0.37 0.44 0.40 0.63 0.40 0.75 1.34 0.77 0.51 0.33 0.65 0.50 0.41 0.25 0.39 0.16 0.10 0.11 0.09 0.03 0.02 0.01 0.01 0.00
0.00 0.00 0.00 0.00 0.01 0.01 0.00 0.00 0.00 0.00 0.00 0.00 0.00 0.00 0.00 0.00 0.00 0.00 0.00 0.00 0.00 0.00 0.00 0.00 0.00 0.00 0.00 0.00 0.00 0.00 0.00 0.00 0.00 0.00 0.00 0.00 0.00 0.00 0.00 0.00 0.00 0.00 0.00 0.00 0.00 0.00 0.00 0.00 0.00 0.00 0.00 0.00 0.00 0.00 0.00 0.08 0.23 0.21 0.19 0.58 0.19 0.30 0.10 0.45 0.32 0.34 0.27 0.39 0.43 0.40 0.66 0.36 0.58 0.28 0.35 0.58 0.51 0.78 0.66 0.56 0.69 0.15 0.13 0.03 0.02 0.05 0.03 0.01
0.00 0.00 0.00 0.00 0.01 0.01 0.00 0.00 0.00 0.00 0.00 0.00 0.00 0.00 0.01 0.00 0.00 0.00 0.00 0.00 0.00 0.00 0.00 0.00 0.00 0.00 0.00 0.00 0.00 0.00 0.00 0.00 0.00 0.00 0.00 0.00 0.00 0.00 0.00 0.00 0.00 0.00 0.00 0.00 0.00 0.00 0.00 0.00 0.00 0.00 0.00 0.00 0.00 0.00 0.00 0.02 0.00 0.08 0.23 0.59 0.37 0.46 0.46 0.23 0.37 0.09 0.19 0.32 0.45 0.25 0.55 0.45 0.54 0.39 0.69 0.56 0.26 0.67 0.32 0.54 0.52 0.53 0.33 0.07 0.03 0.02 0.01 0.01
0.00 0.00 0.00 0.00 0.00 0.01 0.00 0.00 0.00 0.00 0.01 0.00 0.00 0.00 0.00 0.00 0.00 0.00 0.00 0.00 0.00 0.00 0.00 0.00 0.00 0.00 0.00 0.00 0.00 0.00 0.00 0.00 0.00 0.00 0.00 0.00 0.00 0.00 0.00 0.00 0.00 0.00 0.00 0.00 0.00 0.00 0.00 0.00 0.00 0.00 0.00 0.00 0.00 0.00 0.00 0.00 0.00 0.05 0.22 0.13 0.36 0.36 0.32 0.34 0.28 0.16 0.11 0.21 0.28 0.35 0.50 0.73 0.34 0.33 0.77 1.09 0.90 0.48 0.51 0.68 0.36 0.48 0.28 0.13 0.07 0.05 0.02 0.05
0.00 0.00 0.00 0.00 0.00 0.00 0.00 0.00 0.00 0.00 0.02 0.00 0.00 0.00 0.00 0.00 0.00 0.00 0.00 0.00 0.00 0.00 0.00 0.00 0.00 0.00 0.00 0.00 0.00 0.00 0.00 0.00 0.00 0.00 0.00 0.00 0.00 0.00 0.00 0.00 0.00 0.00 0.00 0.00 0.00 0.00 0.00 0.00 0.00 0.00 0.00 0.01 0.00 0.00 0.00 0.00 0.00 0.00 0.03 0.17 0.40 0.18 0.39 0.16 0.25 0.16 0.15 0.24 0.23 0.24 0.53 0.57 0.57 1.04 1.23 1.33 1.00 0.43 0.38 0.33 0.68 0.60 0.69 0.44 0.38 0.04 0.02 0.05
0.00 0.00 0.00 0.00 0.00 0.00 0.00 0.00 0.00 0.01 0.01 0.00 0.00 0.00 0.00 0.00 0.00 0.00 0.00 0.00 0.00 0.00 0.00 0.00 0.00 0.00 0.00 0.00 0.00 0.00 0.00 0.00 0.00 0.00 0.00 0.00 0.00 0.00 0.00 0.00 0.00 0.00 0.00 0.00 0.00 0.00 0.00 0.00 0.00 0.00 0.00 0.00 0.00 0.00 0.00 0.00 0.00 0.00 0.01 0.11 0.17 0.15 0.41 0.20 0.34 0.15 0.19 0.26 0.57 0.35 0.49 0.80 1.01 1.46 1.46 0.98 1.01 0.67 0.68 0.41 0.52 0.66 0.80 0.85 0.22 0.19 0.04 0.03
0.00 0.00 0.00 0.00 0.00 0.00 0.00 0.00 0.00 0.01 0.00 0.00 0.00 0.00 0.00 0.00 0.00 0.00 0.00 0.00 0.00 0.00 0.00 0.00 0.00 0.00 0.00 0.00 0.00 0.00 0.00 0.00 0.00 0.00 0.00 0.00 0.00 0.00 0.00 0.00 0.00 0.00 0.00 0.00 0.00 0.00 0.00 0.00 0.00 0.00 0.00 0.00 0.00 0.00 0.00 0.00 0.00 0.00 0.00 0.16 0.06 0.39 0.13 0.36 0.27 0.22 0.23 0.15 0.65 0.64 0.65 0.73 1.31 1.18 1.15 1.77 1.45 1.70 1.39 0.74 0.62 0.99 0.65 0.46 0.37 0.26 0.12 0.03
0.00 0.00 0.00 0.00 0.00 0.00 0.00 0.00 0.01 0.01 0.00 0.00 0.00 0.00 0.00 0.00 0.00 0.00 0.00 0.00 0.00 0.00 0.00 0.00 0.00 0.00 0.00 0.00 0.00 0.00 0.00 0.00 0.00 0.00 0.00 0.00 0.00 0.00 0.00 0.00 0.00 0.00 0.00 0.00 0.00 0.00 0.00 0.00 0.00 0.00 0.00 0.00 0.00 0.00 0.00 0.00 0.00 0.00 0.00 0.00 0.03 0.14 0.18 0.05 0.44 0.32 0.25 0.11 0.57 0.57 0.79 1.69 1.82 1.24 1.19 1.03 1.11 1.30 0.48 0.46 0.76 0.35 0.44 0.73 0.47 0.54 0.14 0.08
0.00 0.00 0.00 0.00 0.00 0.00 0.00 0.01 0.00 0.00 0.00 0.00 0.00 0.00 0.00 0.00 0.00 0.00 0.00 0.00 0.00 0.00 0.00 0.00 0.00 0.00 0.00 0.00 0.00 0.00 0.00 0.00 0.00 0.00 0.00 0.00 0.00 0.00 0.00 0.00 0.00 0.00 0.00 0.00 0.00 0.00 0.00 0.00 0.00 0.00 0.00 0.00 0.00 0.00 0.00 0.00 0.00 0.00 0.00 0.00 0.00 0.01 0.03 0.04 0.13 0.23 0.26 0.77 1.19 0.31 0.68 0.59 0.82 0.59 0.76 0.85 0.52 0.54 0.35 0.26 0.27 0.28 0.77 0.36 0.45 0.40 0.19 0.06
0.00 0.00 0.00 0.00 0.00 0.00 0.00 0.00 0.00 0.00 0.00 0.00 0.00 0.00 0.00 0.00 0.00 0.00 0.00 0.00 0.00 0.00 0.00 0.00 0.00 0.00 0.00 0.00 0.00 0.00 0.00 0.00 0.00 0.00 0.00 0.00 0.00 0.00 0.00 0.00 0.00 0.00 0.00 0.00 0.00 0.00 0.00 0.00 0.00 0.00 0.00 0.00 0.00 0.00 0.00 0.00 0.00 0.00 0.00 0.00 0.00 0.00 0.07 0.23 0.20 0.24 0.47 0.42 0.36 0.13 0.30 0.55 0.45 0.66 0.43 0.48 0.24 0.29 0.33 0.20 0.23 0.17 0.22 0.19 0.36 1.03 0.14 0.24
0.00 0.00 0.00 0.00 0.00 0.01 0.00 0.00 0.00 0.00 0.00 0.00 0.00 0.00 0.00 0.00 0.00 0.00 0.00 0.00 0.00 0.00 0.00 0.00 0.00 0.00 0.00 0.00 0.00 0.00 0.00 0.00 0.00 0.00 0.00 0.00 0.00 0.00 0.00 0.00 0.00 0.00 0.00 0.00 0.00 0.00 0.00 0.00 0.00 0.00 0.00 0.00 0.00 0.00 0.00 0.00 0.00 0.03 0.00 0.00 0.00 0.00 0.01 0.14 0.13 0.24 0.31 0.27 0.51 0.18 0.22 0.47 0.51 0.39 0.35 0.29 0.64 0.43 0.87 0.32 0.16 0.20 0.06 0.15 0.21 0.36 0.17 0.06
0.00 0.00 0.00 0.00 0.00 0.02 0.00 0.00 0.00 0.00 0.00 0.00 0.00 0.00 0.00 0.00 0.00 0.00 0.00 0.00 0.00 0.00 0.00 0.00 0.00 0.00 0.00 0.00 0.00 0.00 0.01 0.00 0.00 0.00 0.00 0.00 0.00 0.00 0.00 0.00 0.00 0.00 0.00 0.00 0.00 0.00 0.00 0.00 0.00 0.00 0.00 0.00 0.00 0.00 0.00 0.00 0.00 0.04 0.00 0.00 0.02 0.03 0.00 0.00 0.05 0.47 0.38 0.21 0.38 0.13 0.15 0.13 0.12 0.31 0.27 0.31 0.33 0.25 0.35 0.16 0.27 0.12 0.09 0.04 0.34 0.11 0.12 0.08
0.00 0.00 0.00 0.00 0.00 0.00 0.00 0.00 0.00 0.00 0.00 0.00 0.00 0.00 0.00 0.00 0.00 0.00 0.05 0.03 0.00 0.00 0.00 0.00 0.00 0.00 0.00 0.00 0.00 0.00 0.00 0.00 0.00 0.00 0.00 0.00 0.00 0.00 0.00 0.00 0.00 0.00 0.00 0.00 0.00 0.00 0.00 0.00 0.00 0.00 0.00 0.00 0.00 0.00 0.00 0.00 0.00 0.00 0.00 0.00 0.00 0.02 0.01 0.00 0.01 0.02 0.16 0.04 0.12 0.27 0.10 0.23 0.35 0.47 0.71 0.30 0.27 0.38 0.27 0.19 0.09 0.09 0.07 0.08 0.22 0.09 0.11 0.09
0.00 0.00 0.00 0.00 0.00 0.00 0.00 0.00 0.00 0.00 0.00 0.00 0.00 0.00 0.00 0.00 0.00 0.03 0.03 0.03 0.00 0.00 0.00 0.00 0.00 0.00 0.00 0.00 0.00 0.00 0.00 0.00 0.00 0.00 0.00 0.00 0.00 0.00 0.00 0.00 0.00 0.00 0.00 0.00 0.00 0.00 0.00 0.00 0.00 0.00 0.00 0.00 0.00 0.00 0.00 0.00 0.00 0.00 0.00 0.00 0.01 0.00 0.06 0.01 0.04 0.16 0.19 0.05 0.02 0.06 0.12 0.02 0.56 0.62 0.68 0.41 0.25 0.22 0.25 0.15 0.35 0.10 0.08 0.07 0.06 0.06 0.04 0.10
0.00 0.00 0.00 0.01 0.01 0.00 0.00 0.00 0.00 0.00 0.00 0.00 0.00 0.00 0.00 0.00 0.02 0.04 0.06 0.00 0.00 0.00 0.00 0.00 0.00 0.00 0.00 0.00 0.00 0.00 0.00 0.00 0.00 0.00 0.00 0.00 0.00 0.00 0.00 0.00 0.00 0.00 0.00 0.00 0.00 0.00 0.00 0.00 0.00 0.00 0.00 0.00 0.00 0.00 0.00 0.00 0.00 0.00 0.00 0.00 0.00 0.00 0.03 0.17 0.08 0.09 0.26 0.15 0.02 0.01 0.09 0.05 0.11 0.42 0.32 0.05 0.10 0.11 0.30 0.12 0.16 0.09 0.04 0.05 0.06 0.08 0.07 0.63
0.00 0.00 0.00 0.00 0.00 0.01 0.00 0.00 0.00 0.00 0.00 0.00 0.00 0.00 0.00 0.04 0.05 0.12 0.04 0.00 0.01 0.00 0.00 0.00 0.00 0.00 0.00 0.00 0.00 0.00 0.00 0.00 0.00 0.00 0.00 0.00 0.00 0.00 0.00 0.00 0.00 0.00 0.00 0.00 0.00 0.00 0.00 0.00 0.00 0.00 0.00 0.00 0.00 0.00 0.00 0.00 0.00 0.00 0.00 0.00 0.02 0.07 0.03 0.37 0.18 0.20 0.03 0.06 0.05 0.00 0.05 0.40 0.09 0.09 0.02 0.16 0.20 0.03 0.06 0.04 0.07 0.07 0.03 0.02 0.05 0.05 0.04 0.06
0.00 0.00 0.00 0.00 0.00 0.00 0.00 0.00 0.00 0.00 0.00 0.00 0.00 0.00 0.02 0.09 0.04 0.02 0.05 0.00 0.02 0.00 0.00 0.00 0.00 0.00 0.00 0.00 0.00 0.00 0.00 0.00 0.00 0.00 0.00 0.00 0.00 0.00 0.00 0.00 0.00 0.00 0.04 0.00 0.00 0.00 0.00 0.00 0.00 0.00 0.00 0.00 0.00 0.00 0.00 0.00 0.00 0.00 0.00 0.00 0.03 0.05 0.06 0.03 0.07 0.03 0.04 0.00 0.03 0.01 0.05 0.08 0.11 0.09 0.02 0.06 0.02 0.10 0.09 0.06 0.09 0.09 0.03 0.01 0.04 0.05 0.05 0.13
0.00 0.00 0.00 0.00 0.00 0.00 0.00 0.00 0.00 0.00 0.00 0.00 0.00 0.01 0.02 0.12 0.01 0.00 0.00 0.00 0.00 0.00 0.00 0.00 0.00 0.00 0.00 0.00 0.00 0.00 0.00 0.00 0.00 0.00 0.00 0.00 0.00 0.00 0.00 0.00 0.00 0.00 0.00 0.00 0.00 0.00 0.00 0.00 0.00 0.00 0.00 0.00 0.00 0.00 0.00 0.00 0.00 0.00 0.00 0.00 0.02 0.02 0.00 0.07 0.07 0.09 0.04 0.05 0.03 0.02 0.05 0.15 0.06 0.35 0.05 0.05 0.00 0.01 0.07 0.10 0.07 0.09 0.06 0.02 0.20 0.08 0.10 0.08
0.00 0.00 0.00 0.00 0.00 0.00 0.00 0.00 0.00 0.00 0.00 0.00 0.00 0.07 0.09 0.04 0.01 0.05 0.02 0.01 0.00 0.00 0.00 0.00 0.00 0.00 0.00 0.00 0.00 0.00 0.00 0.00 0.00 0.00 0.00 0.00 0.00 0.00 0.00 0.00 0.00 0.00 0.00 0.00 0.00 0.00 0.00 0.00 0.00 0.00 0.00 0.00 0.00 0.00 0.00 0.00 0.00 0.00 0.00 0.00 0.02 0.01 0.02 0.13 0.04 0.13 0.16 0.13 0.03 0.14 0.11 0.17 0.62 0.19 0.21 0.19 0.02 0.02 0.01 0.02 0.10 0.07 0.14 0.28 0.24 0.16 0.08 0.07
0.00 0.00 0.00 0.00 0.00 0.00 0.00 0.00 0.00 0.00 0.00 0.00 0.03 0.09 0.08 0.02 0.04 0.00 0.00 0.00 0.00 0.00 0.00 0.00 0.00 0.00 0.00 0.02 0.00 0.00 0.00 0.00 0.00 0.00 0.00 0.00 0.00 0.02 0.00 0.00 0.00 0.00 0.00 0.00 0.01 0.00 0.00 0.00 0.00 0.00 0.00 0.00 0.00 0.00 0.00 0.00 0.00 0.00 0.00 0.00 0.01 0.00 0.01 0.01 0.01 0.00 0.04 0.06 0.24 0.09 0.02 0.03 0.04 0.23 0.36 0.13 0.67 0.78 0.33 0.37 0.50 0.65 0.65 0.70 0.18 0.37 0.21 0.15
0.00 0.00 0.00 0.00 0.00 0.00 0.00 0.00 0.00 0.00 0.00 0.00 0.12 0.04 0.00 0.00 0.00 0.00 0.00 0.00 0.00 0.00 0.00 0.00 0.00 0.00 0.00 0.00 0.00 0.00 0.00 0.00 0.00 0.00 0.00 0.00 0.00 0.00 0.00 0.00 0.00 0.00 0.00 0.00 0.00 0.00 0.00 0.00 0.00 0.00 0.00 0.00 0.00 0.00 0.00 0.00 0.00 0.00 0.00 0.00 0.00 0.00 0.01 0.01 0.11 0.04 0.01 0.05 0.08 0.01 0.18 0.37 0.04 0.29 0.08 0.12 0.26 0.28 0.61 0.51 0.52 0.58 0.53 0.49 0.50 0.44 0.67 0.70
0.00 0.00 0.00 0.00 0.00 0.00 0.00 0.00 0.00 0.00 0.00 0.05 0.08 0.00 0.00 0.01 0.00 0.00 0.00 0.00 0.01 0.00 0.01 0.00 0.00 0.00 0.00 0.00 0.00 0.00 0.00 0.00 0.00 0.00 0.00 0.00 0.01 0.00 0.00 0.00 0.00 0.00 0.00 0.00 0.00 0.00 0.00 0.00 0.00 0.00 0.00 0.00 0.00 0.00 0.00 0.00 0.00 0.00 0.00 0.00 0.00 0.03 0.12 0.00 0.01 0.02 0.06 0.02 0.13 0.05 0.07 0.06 0.11 0.21 0.04 0.03 0.10 0.08 0.07 0.05 0.08 0.11 0.36 0.34 0.19 0.16 0.28 0.38
0.00 0.00 0.00 0.00 0.00 0.00 0.00 0.00 0.00 0.01 0.04 0.21 0.05 0.01 0.05 0.01 0.00 0.00 0.00 0.00 0.00 0.00 0.00 0.00 0.00 0.00 0.00 0.00 0.00 0.00 0.00 0.00 0.00 0.00 0.03 0.00 0.01 0.00 0.00 0.00 0.00 0.00 0.00 0.00 0.00 0.00 0.00 0.00 0.00 0.00 0.00 0.00 0.00 0.00 0.00 0.00 0.00 0.00 0.00 0.00 0.00 0.00 0.02 0.03 0.00 0.11 0.01 0.29 0.05 0.26 0.21 0.29 0.19 0.45 0.19 0.17 0.16 0.03 0.08 0.06 0.06 0.12 0.10 0.20 0.24 0.26 0.39 0.37
0.00 0.00 0.00 0.00 0.00 0.00 0.00 0.00 0.00 0.01 0.12 0.06 0.05 0.03 0.00 0.00 0.00 0.00 0.00 0.00 0.01 0.00 0.00 0.00 0.00 0.00 0.00 0.00 0.00 0.00 0.00 0.00 0.00 0.00 0.00 0.00 0.00 0.00 0.00 0.00 0.00 0.00 0.00 0.00 0.00 0.00 0.00 0.00 0.00 0.00 0.00 0.00 0.00 0.00 0.00 0.00 0.00 0.00 0.00 0.00 0.00 0.00 0.00 0.01 0.02 0.05 0.05 0.08 0.13 0.13 0.11 0.16 0.29 0.14 0.68 0.67 0.16 0.06 0.05 0.06 0.10 0.05 0.07 0.09 0.57 0.56 0.29 0.22
0.00 0.00 0.00 0.00 0.00 0.00 0.00 0.00 0.02 0.05 0.05 0.08 0.00 0.01 0.00 0.00 0.00 0.00 0.00 0.00 0.00 0.00 0.00 0.00 0.00 0.00 0.00 0.00 0.00 0.00 0.00 0.00 0.00 0.00 0.00 0.00 0.00 0.00 0.00 0.00 0.00 0.00 0.00 0.00 0.00 0.00 0.00 0.00 0.00 0.00 0.00 0.00 0.00 0.00 0.00 0.00 0.00 0.00 0.00 0.00 0.00 0.00 0.00 0.00 0.00 0.00 0.00 0.03 0.05 0.07 0.40 0.23 0.16 0.21 0.06 0.48 0.15 0.25 0.05 0.03 0.04 0.07 0.06 0.03 0.11 0.42 0.14 0.12
0.00 0.01 0.00 0.00 0.00 0.00 0.00 0.05 0.05 0.01 0.03 0.05 0.06 0.02 0.01 0.00 0.00 0.00 0.00 0.00 0.00 0.00 0.00 0.00 0.00 0.00 0.00 0.00 0.00 0.00 0.00 0.00 0.01 0.01 0.01 0.01 0.00 0.00 0.00 0.00 0.00 0.00 0.00 0.00 0.01 0.04 0.00 0.00 0.00 0.00 0.00 0.00 0.00 0.00 0.00 0.00 0.00 0.00 0.00 0.00 0.00 0.00 0.00 0.00 0.00 0.03 0.00 0.01 0.01 0.10 0.11 0.52 0.06 0.13 0.10 0.20 0.43 0.39 0.35 0.10 0.18 0.13 0.17 0.18 0.10 0.16 0.40 0.36
0.00 0.00 0.00 0.00 0.00 0.00 0.00 0.05 0.02 0.03 0.03 0.02 0.00 0.08 0.03 0.01 0.01 0.01 0.01 0.01 0.01 0.00 0.01 0.00 0.00 0.00 0.00 0.00 0.00 0.00 0.00 0.00 0.01 0.04 0.02 0.02 0.02 0.01 0.00 0.00 0.00 0.00 0.00 0.00 0.00 0.00 0.00 0.01 0.00 0.00 0.00 0.00 0.00 0.00 0.00 0.00 0.00 0.00 0.00 0.00 0.00 0.00 0.00 0.00 0.00 0.01 0.02 0.15 0.09 0.12 0.04 0.23 0.21 0.12 0.16 0.08 0.37 0.26 0.23 0.53 0.72 0.71 0.63 0.46 0.45 0.29 0.06 0.13
0.00 0.00 0.00 0.00 0.00 0.00 0.01 0.03 0.05 0.04 0.05 0.01 0.01 0.02 0.01 0.01 0.02 0.05 0.04 0.08 0.02 0.09 0.07 0.02 0.00 0.02 0.01 0.00 0.00 0.03 0.00 0.01 0.01 0.02 0.04 0.03 0.04 0.01 0.00 0.00 0.00 0.00 0.00 0.00 0.00 0.01 0.02 0.01 0.00 0.02 0.00 0.00 0.00 0.00 0.00 0.00 0.00 0.00 0.00 0.00 0.00 0.00 0.01 0.01 0.00 0.01 0.01 0.04 0.06 0.07 0.09 0.09 0.17 0.16 0.19 0.12 0.12 0.21 0.10 0.11 0.07 0.13 0.13 0.10 0.25 0.45 0.79 0.27
0.02 0.00 0.00 0.00 0.00 0.00 0.06 0.04 0.06 0.04 0.02 0.02 0.01 0.03 0.05 0.05 0.03 0.02 0.02 0.01 0.07 0.06 0.01 0.03 0.03 0.06 0.01 0.02 0.00 0.00 0.00 0.00 0.03 0.04 0.03 0.04 0.07 0.02 0.00 0.00 0.00 0.00 0.00 0.00 0.00 0.00 0.00 0.01 0.02 0.05 0.01 0.01 0.03 0.02 0.06 0.21 0.01 0.01 0.00 0.00 0.00 0.01 0.00 0.00 0.00 0.02 0.00 0.08 0.04 0.08 0.13 0.21 0.08 0.08 0.05 0.26 0.18 0.09 0.05 0.09 0.02 0.02 0.02 0.02 0.29 0.07 0.14 0.10
0.01 0.15 0.00 0.00 0.01 0.02 0.01 0.00 0.03 0.04 0.04 0.03 0.01 0.03 0.01 0.06 0.07 0.05 0.02 0.04 0.02 0.03 0.02 0.10 0.02 0.04 0.06 0.02 0.03 0.02 0.02 0.01 0.03 0.06 0.05 0.10 0.09 0.06 0.01 0.01 0.00 0.00 0.00 0.00 0.00 0.00 0.00 0.00 0.01 0.01 0.02 0.10 0.25 0.05 0.00 0.00 0.00 0.01 0.00 0.00 0.01 0.00 0.00 0.00 0.01 0.05 0.01 0.06 0.08 0.08 0.02 0.19 0.15 0.13 0.07 0.08 0.05 0.07 0.05 0.03 0.06 0.02 0.02 0.06 0.02 0.02 0.04 0.08
0.07 0.06 0.02 0.12 0.04 0.15 0.03 0.06 0.03 0.08 0.09 0.05 0.06 0.02 0.01 0.03 0.03 0.06 0.04 0.13 0.05 0.04 0.02 0.04 0.07 0.06 0.16 0.07 0.09 0.04 0.01 0.01 0.01 0.01 0.05 0.07 0.04 0.04 0.03 0.01 0.02 0.01 0.01 0.00 0.00 0.00 0.00 0.01 0.00 0.00 0.00 0.00 0.01 0.00 0.00 0.00 0.01 0.00 0.00 0.00 0.00 0.00 0.00 0.00 0.00 0.01 0.02 0.03 0.05 0.03 0.03 0.01 0.12 0.12 0.07 0.06 0.07 0.01 0.01 0.02 0.03 0.03 0.02 0.02 0.01 0.01 0.01 0.03
0.19 0.05 0.03 0.38 0.18 0.07 0.05 0.08 0.09 0.15 0.10 0.06 0.14 0.03 0.04 0.02 0.04 0.06 0.03 0.04 0.03 0.06 0.14 0.24 0.07 0.12 0.07 0.08 0.09 0.13 0.10 0.06 0.02 0.06 0.03 0.04 0.03 0.03 0.04 0.06 0.02 0.05 0.02 0.01 0.00 0.00 0.00 0.01 0.00 0.00 0.00 0.00 0.00 0.00 0.00 0.00 0.00 0.00 0.02 0.02 0.00 0.00 0.00 0.00 0.00 0.00 0.01 0.02 0.27 0.12 0.05 0.06 0.05 0.14 0.12 0.07 0.04 0.02 0.02 0.05 0.02 0.01 0.02 0.03 0.03 0.02 0.01 0.02
0.08 0.08 0.04 0.04 0.21 0.15 0.10 0.08 0.02 0.10 0.18 0.15 0.11 0.08 0.05 0.06 0.04 0.03 0.04 0.02 0.03 0.05 0.06 0.16 0.14 0.12 0.09 0.07 0.08 0.19 0.19 0.13 0.06 0.12 0.05 0.05 0.04 0.03 0.04 0.05 0.03 0.04 0.03 0.02 0.00 0.00 0.01 0.01 0.01 0.00 0.01 0.00 0.00 0.00 0.00 0.00 0.00 0.00 0.00 0.02 0.00 0.00 0.00 0.01 0.00 0.00 0.00 0.02 0.04 0.05 0.13 0.15 0.11 0.17 0.35 0.26 0.05 0.02 0.01 0.08 0.07 0.06 0.01 0.01 0.01 0.02 0.02 0.02
0.16 0.32 0.76 0.15 0.39 0.09 0.06 0.06 0.04 0.05 0.11 0.13 0.19 0.23 0.16 0.12 0.04 0.02 0.12 0.07 0.07 0.04 0.08 0.09 0.11 0.12 0.09 0.09 0.10 0.16 0.14 0.13 0.06 0.13 0.02 0.02 0.03 0.03 0.04 0.05 0.11 0.05 0.04 0.04 0.02 0.06 0.00 0.03 0.00 0.01 0.01 0.01 0.00 0.00 0.00 0.00 0.00 0.01 0.00 0.00 0.01 0.01 0.00 0.00 0.00 0.00 0.00 0.00 0.04 0.02 0.03 0.14 0.18 0.08 0.15 0.44 0.10 0.06 0.03 0.03 0.40 0.28 0.12 0.07 0.05 0.04 0.02 0.03
0.20 0.46 0.70 0.81 0.33 0.14 0.12 0.07 0.10 0.19 0.18 0.06 0.10 0.23 0.11 0.15 0.13 0.23 0.15 0.08 0.06 0.11 0.18 0.12 0.06 0.06 0.06 0.06 0.09 0.10 0.07 0.05 0.04 0.02 0.02 0.02 0.05 0.06 0.04 0.10 0.03 0.05 0.07 0.05 0.05 0.06 0.00 0.04 0.00 0.03 0.02 0.01 0.00 0.01 0.00 0.00 0.00 0.01 0.01 0.01 0.02 0.00 0.02 0.02 0.01 0.05 0.03 0.10 0.08 0.10 0.05 0.12 0.37 0.15 0.06 0.24 0.35 0.12 0.09 0.02 0.19 0.17 0.15 0.19 0.13 0.01 0.28 0.03
0.28 0.33 0.80 0.91 0.56 0.18 0.08 0.04 0.08 0.08 0.22 0.11 0.25 0.20 0.23 0.11 0.14 0.09 0.14 0.07 0.08 0.22 0.20 0.08 0.06 0.03 0.05 0.08 0.16 0.11 0.08 0.06 0.04 0.04 0.02 0.00 0.00 0.00 0.01 0.01 0.01 0.03 0.06 0.06 0.04 0.09 0.03 0.07 0.04 0.04 0.09 0.02 0.01 0.02 0.01 0.01 0.02 0.02 0.06 0.00 0.00 0.00 0.00 0.00 0.02 0.06 0.12 0.04 0.11 0.13 0.53 0.11 0.10 0.15 0.05 0.03 0.31 0.47 0.10 0.04 0.10 0.06 0.18 0.11 0.15 0.02 0.06 0.21